Regional Weather Roundup
Issued by NWS Sioux Falls, SD

Home | Current Version | Previous Version | Graphics & Text | Print | Product List | Glossary On
Versions: 1 2 3 4 5 6 7 8 9 10 11 12 13 14 15 16 17 18 19 20 21 22 23 24 25 26 27 28 29 30 31 32 33 34 35 36 37 38 39 40 41 42 43 44 45 46 47 48 49 50
000
ASUS43 KFSD 241102
RWRFSD

WEATHER ROUNDUP FOR SE SOUTH DAKOTA/SW MINNESOTA/NW IOWA
NATIONAL WEATHER SERVICE SIOUX FALLS SD
600 AM CDT SUN SEP 24 2017

NOTE: "FAIR" INDICATES FEW OR NO CLOUDS BELOW 12,000 FEET WITH NO
SIGNIFICANT WEATHER AND OR OBSTRUCTIONS TO VISIBILITY.


SDZ038>040-050-052>070-241200-
SOUTHEAST SOUTH DAKOTA

CITY           SKY/WX    TMP DP  RH WIND       PRES   REMARKS
BROOKINGS      MOCLDY    62  60  93 SE9       29.86F
CHAMBERLAIN    RAIN      54  54 100 NW5       29.88F
HURON          CLOUDY    57  56  96 CALM      29.85S
MADISON        FAIR      57  57 100 S6        29.87S
MITCHELL       CLOUDY    57  56  96 CALM      29.86S FOG
SIOUX FALLS    CLOUDY    70  65  84 S13       29.86S
WINNER         LGT RAIN  52  51  97 NW10      29.88F
YANKTON        FOG       57  57 100 CALM      29.87S VSB 1
$$

MNZ071-072-080-081-089-090-097-098-241200-
SOUTHWEST MINNESOTA

CITY           SKY/WX    TMP DP  RH WIND       PRES   REMARKS
FAIRMONT       CLEAR     65  63  93 S6        29.94S
JACKSON        CLEAR     66  63  88 CALM      29.94S
LUVERNE        PTCLDY    64  61  88 S6        29.89S
MARSHALL       CLOUDY    57  57 100 SE9       29.88F FOG
MONTEVIDEO     DRIZZLE   63  63 100 S9        29.87S
PIPESTONE      CLOUDY    66  63  88 S10       29.88S
REDWOOD FALLS  FOG       60  58  92 SE7       29.90S VSB 3/4
TRACY          PTCLDY    58  58 100 S5        29.89F
WORTHINGTON    PTCLDY    66  63  90 S8        29.92F
$$

IAZ001>003-012>014-020>022-031-032-NEZ013-014-SDZ071-241200-
NORTHWEST IOWA

CITY           SKY/WX    TMP DP  RH WIND       PRES   REMARKS
DENISON        CLEAR     70  64  83 S10       29.95R
ESTHERVILLE    CLEAR     64  64 100 S8        29.94R
LE MARS        CLEAR     68  64  88 SE7       29.90R
ORANGE CITY    PTCLDY    70  66  88 S7        29.91R
SHELDON        CLEAR     68  64  88 S8        29.90R
SIOUX CITY     PTCLDY    64  64 100 SE7       29.89S
SPENCER        CLEAR     66  63  90 SE8       29.93S
STORM LAKE     CLEAR     64  63  94 SE6       29.94S
$$

ABBREVIATIONS USED IN REMARKS
   TC - TEMPERATURE IN CELSIUS
  WCI - WIND CHILL INDEX
   HX - HEAT INDEX
  VSB - VISIBILITY





USA.gov is the U.S. government's official web portal to all federal, state and local government web resources and services.